Location: Sauerland
(51.1981°N, 7.8053°E)
Time: 21:26:05
(UTC+01:00)

ISS - Visible Passes

Search period start: 22 January 2018 00:00
Search period end: 01 February 2018 00:00
Orbit: 402 x 407 km, 51.6° (Epoch: 23 January)

Date Brightness Start Highest point End Pass type
(mag) Time Alt. Az. Time Alt. Az. Time Alt. Az.
26 Jan -1.6 18:55:07 10° S 18:56:31 14° SSE 18:56:31 14° SSE visible
27 Jan -1.8 19:37:42 10° SW 19:39:14 23° SSW 19:39:14 23° SSW visible
28 Jan -2.5 18:45:47 10° SSW 18:48:34 26° SSE 18:49:12 24° SE visible
28 Jan -0.6 20:21:29 10° WSW 20:21:52 13° WSW 20:21:52 13° WSW visible
29 Jan -1.8 17:54:10 10° S 17:56:24 17° SE 17:58:38 10° E visible
29 Jan -3.1 19:29:12 10° WSW 19:31:46 48° SW 19:31:46 48° SW visible
30 Jan -3.2 18:37:00 10° SW 18:40:08 44° SSE 18:41:36 25° E visible
30 Jan -1.0 20:13:13 10° W 20:14:16 19° W 20:14:16 19° W visible
31 Jan -3.9 19:20:50 10° WSW 19:24:03 85° SSW 19:24:03 85° SSW visible
